User: anonymous   Login
Location: Niverville
(49.6028°N, 97.0419°W)
Time: 18:24:03
(UTC-05:00)
Language:

BREEZE-M DEB (TANK) - Orbit

View from above orbital plane
View from above orbital plane
View from above satellite
View from above satellite

Ground track
Ground track

The orbit data is extracted from the following two-line orbital elements,

1 33374U 08044B   16238.71711884  .00000461  00000-0  11228-3 0  9991
2 33374  49.4331 131.6500 5452170 266.9858  32.6671  4.86405626139616
Epoch (UTC): 25 August 2016 17:12:39
Eccentricity: 0.5452170
inclination: 49.4331°
perigee height: 313 km
apogee height: 16358 km
right ascension of ascending node: 131.6500°
argument of perigee: 266.9858°
revolutions per day: 4.86405626
mean anomaly at epoch: 32.6671°
orbit number at epoch: 13961

The dashed part of the orbit path shows where the satellite is in the earth's shadow,  

DLR